Weather History for Hayden, CO

Change the Weather History Date:

Saturday, August 17, 2013

  Actual Average Record
Temperature  
Mean Temperature 69 °F -  
Max Temperature 87 °F 82 °F 91 °F (1948)
Min Temperature 51 °F 47 °F 32 °F (1960)
Cooling Degree Days 4    
Growing Degree Days 19 (Base 50)    
Moisture  
Dew Point 30 °F    
Average Humidity 25    
Maximum Humidity 41    
Minimum Humidity 11    
Precipitation  
Precipitation 0.00 in - - ()
Sea Level Pressure  
Sea Level Pressure 30.27 in    
Wind  
Wind Speed 8 mph (ESE)    
Max Wind Speed 15 mph    
Max Gust Speed 21 mph    
Visibility 10 miles    
Events      
Averages and records for this station are not official NWS values.
T = Trace of Precipitation, MM = Missing Value Source: NWS Daily Summary

Daily Weather History Graph

Daily Weather History Graph

Search for Another Location

Airport:

Trip Planner

Search our weather history database for the weather conditions in past years. The results will help you decide how hot, cold, wet, or windy it might be!

Date:

Astronomy

Aug. 17, 2013 Rise Set
Actual Time 6:21 AM MDT 8:03 PM MDT
Civil Twilight 5:52 AM MDT 8:32 PM MDT
Nautical Twilight 5:17 AM MDT 9:07 PM MDT
Astronomical Twilight 4:39 AM MDT 9:44 PM MDT
Moon 5:21 PM MDT (8/17) 2:27 AM MDT (8/17)
Length of Visible Light 14h 39m
Length of Day
13h 41m
Waxing Gibbous, 85% of the Moon is Illuminated
Aug 17
Waxing Gibbous
Aug 20
Full
Aug 28
Last Quarter
Sep 5
New
Sep 12
First Quarter

Hourly Weather History & Observations

Time (MDT) Temp. Dew Point Humidity Pressure Visibility Wind Dir Wind Speed Gust Speed Precip Events Conditions
12:15 AM 59.0 °F 26.6 °F 29% 30.29 in 10.0 mi SSE 3.5 mph - N/A   Clear
12:35 AM 59.0 °F 26.6 °F 29% 30.29 in 10.0 mi ESE 8.1 mph - N/A   Clear
12:55 AM 59.0 °F 26.6 °F 29% 30.29 in 10.0 mi ESE 11.5 mph - N/A   Clear
1:15 AM 60.8 °F 28.4 °F 29% 30.29 in 10.0 mi East 12.7 mph - N/A   Clear
1:35 AM 59.0 °F 30.2 °F 34% 30.29 in 10.0 mi ESE 15.0 mph - N/A   Clear
1:55 AM 59.0 °F 30.2 °F 34% 30.29 in 10.0 mi ESE 11.5 mph - N/A   Clear
2:15 AM 57.2 °F 28.4 °F 33% 30.29 in 10.0 mi ESE 10.4 mph - N/A   Clear
2:35 AM 55.4 °F 28.4 °F 36% 30.30 in 10.0 mi ESE 9.2 mph - N/A   Clear
2:55 AM 55.4 °F 28.4 °F 36% 30.29 in 10.0 mi ESE 11.5 mph - N/A   Clear
3:15 AM 55.4 °F 28.4 °F 36% 30.30 in 10.0 mi ESE 10.4 mph - N/A   Clear
3:35 AM 53.6 °F 28.4 °F 38% 30.29 in 10.0 mi ESE 12.7 mph - N/A   Clear
3:55 AM 55.4 °F 28.4 °F 36% 30.30 in 10.0 mi ESE 11.5 mph - N/A   Clear
4:15 AM 55.4 °F 28.4 °F 36% 30.30 in 10.0 mi ESE 10.4 mph - N/A   Clear
4:35 AM 53.6 °F 28.4 °F 38% 30.30 in 10.0 mi ESE 11.5 mph - N/A   Clear
4:55 AM 53.6 °F 28.4 °F 38% 30.30 in 10.0 mi ESE 10.4 mph - N/A   Clear
5:15 AM 53.6 °F 28.4 °F 38% 30.30 in 10.0 mi ESE 11.5 mph - N/A   Clear
5:35 AM 51.8 °F 28.4 °F 41% 30.30 in 10.0 mi ESE 11.5 mph - N/A   Clear
5:55 AM 53.6 °F 28.4 °F 38% 30.31 in 10.0 mi ESE 11.5 mph - N/A   Clear
6:15 AM 51.8 °F 28.4 °F 41% 30.31 in 10.0 mi ESE 9.2 mph - N/A   Clear
6:35 AM 51.8 °F 28.4 °F 41% 30.32 in 10.0 mi ESE 9.2 mph - N/A   Clear
6:55 AM 51.8 °F 28.4 °F 41% 30.32 in 10.0 mi ESE 11.5 mph - N/A   Clear
7:15 AM 53.6 °F 28.4 °F 38% 30.32 in 10.0 mi ESE 10.4 mph - N/A   Clear
7:35 AM 53.6 °F 30.2 °F 41% 30.33 in 10.0 mi ESE 6.9 mph - N/A   Clear
7:55 AM 55.4 °F 30.2 °F 38% 30.33 in 10.0 mi ESE 9.2 mph - N/A   Clear
8:15 AM 55.4 °F 30.2 °F 38% 30.33 in 10.0 mi ESE 6.9 mph - N/A   Clear
8:35 AM 57.2 °F 30.2 °F 36% 30.33 in 10.0 mi ESE 6.9 mph - N/A   Clear
8:55 AM 60.8 °F 32.0 °F 34% 30.34 in 10.0 mi ESE 6.9 mph - N/A   Clear
9:15 AM 62.6 °F 32.0 °F 32% 30.34 in 10.0 mi ESE 6.9 mph - N/A   Clear
9:35 AM 64.4 °F 32.0 °F 30% 30.34 in 10.0 mi SE 8.1 mph - N/A   Clear
9:55 AM 69.8 °F 33.8 °F 27% 30.34 in 10.0 mi East 8.1 mph - N/A   Clear
10:15 AM 71.6 °F 32.0 °F 23% 30.34 in 10.0 mi East 4.6 mph - N/A   Clear
10:35 AM 73.4 °F 30.2 °F 20% 30.33 in 10.0 mi Calm Calm - N/A   Clear
10:55 AM 75.2 °F 30.2 °F 19% 30.33 in 10.0 mi ENE 3.5 mph - N/A   Clear
11:15 AM 77.0 °F 28.4 °F 17% 30.32 in 10.0 mi Calm Calm - N/A   Clear
11:35 AM 78.8 °F 28.4 °F 16% 30.32 in 10.0 mi North 4.6 mph - N/A   Clear
11:55 AM 80.6 °F 28.4 °F 15% 30.31 in 10.0 mi West 6.9 mph - N/A   Clear
12:15 PM 82.4 °F 28.4 °F 14% 30.30 in 10.0 mi NNW 3.5 mph - N/A   Clear
12:35 PM 82.4 °F 26.6 °F 13% 30.29 in 10.0 mi Calm Calm - N/A   Clear
12:55 PM 84.2 °F 26.6 °F 12% 30.28 in 10.0 mi West 5.8 mph - N/A   Clear
1:15 PM 84.2 °F 26.6 °F 12% 30.27 in 10.0 mi North 4.6 mph - N/A   Clear
1:35 PM 86.0 °F 28.4 °F 12% 30.26 in 10.0 mi SW 4.6 mph 16.1 mph N/A   Clear
1:55 PM 87.8 °F 28.4 °F 12% 30.26 in 10.0 mi West 9.2 mph - N/A   Clear
2:15 PM 87.8 °F 26.6 °F 11% 30.25 in 10.0 mi West 4.6 mph - N/A   Clear
2:35 PM 87.8 °F 26.6 °F 11% 30.24 in 10.0 mi North 3.5 mph - N/A   Clear
2:55 PM 87.8 °F 26.6 °F 11% 30.23 in 10.0 mi NW 5.8 mph - N/A   Clear
3:15 PM 87.8 °F 26.6 °F 11% 30.23 in 10.0 mi WNW 3.5 mph - N/A   Clear
3:35 PM 87.8 °F 26.6 °F 11% 30.22 in 10.0 mi WNW 6.9 mph 19.6 mph N/A   Clear
3:55 PM 87.8 °F 28.4 °F 12% 30.21 in 10.0 mi North 11.5 mph 20.7 mph N/A   Clear
4:15 PM 86.0 °F 26.6 °F 12% 30.21 in 10.0 mi WNW 6.9 mph - N/A   Clear
4:35 PM 87.8 °F 28.4 °F 12% 30.20 in 10.0 mi ENE 5.8 mph - N/A   Clear
4:55 PM 86.0 °F 26.6 °F 12% 30.20 in 10.0 mi NE 6.9 mph - N/A   Clear
5:15 PM 86.0 °F 28.4 °F 12% 30.20 in 10.0 mi East 6.9 mph - N/A   Clear
5:35 PM 86.0 °F 28.4 °F 12% 30.19 in 10.0 mi ENE 5.8 mph - N/A   Clear
5:55 PM 86.0 °F 28.4 °F 12% 30.20 in 10.0 mi East 8.1 mph - N/A   Clear
6:15 PM 84.2 °F 28.4 °F 13% 30.20 in 10.0 mi ENE 4.6 mph - N/A   Clear
6:35 PM 84.2 °F 28.4 °F 13% 30.19 in 10.0 mi East 4.6 mph - N/A   Clear
6:55 PM 84.2 °F 28.4 °F 13% 30.20 in 10.0 mi East 3.5 mph - N/A   Clear
7:15 PM 82.4 °F 30.2 °F 15% 30.19 in 10.0 mi East 3.5 mph - N/A   Clear
7:35 PM 80.6 °F 32.0 °F 17% 30.20 in 10.0 mi ESE 3.5 mph - N/A   Clear
7:55 PM 78.8 °F 30.2 °F 17% 30.20 in 10.0 mi SSE 3.5 mph - N/A   Clear
8:15 PM 77.0 °F 33.8 °F 21% 30.21 in 10.0 mi WNW 6.9 mph 16.1 mph N/A   Clear
8:35 PM 75.2 °F 35.6 °F 24% 30.21 in 10.0 mi West 5.8 mph - N/A   Clear
8:55 PM 73.4 °F 35.6 °F 25% 30.22 in 10.0 mi West 4.6 mph - N/A   Clear
9:15 PM 73.4 °F 33.8 °F 23% 30.23 in 10.0 mi SSW 5.8 mph - N/A   Clear
9:35 PM 73.4 °F 33.8 °F 23% 30.24 in 10.0 mi South 3.5 mph - N/A   Clear
9:55 PM 73.4 °F 33.8 °F 23% 30.25 in 10.0 mi SE 3.5 mph - N/A   Clear
10:15 PM 73.4 °F 35.6 °F 25% 30.25 in 10.0 mi Calm Calm - N/A   Clear
10:35 PM 73.4 °F 35.6 °F 25% 30.25 in 10.0 mi Calm Calm - N/A   Clear
10:55 PM 71.6 °F 33.8 °F 25% 30.25 in 10.0 mi Calm Calm - N/A   Clear
11:15 PM 66.2 °F 35.6 °F 32% 30.26 in 10.0 mi Calm Calm - N/A   Clear
11:35 PM 66.2 °F 35.6 °F 32% 30.27 in 10.0 mi SSW 5.8 mph - N/A   Clear
11:55 PM 68.0 °F 35.6 °F 30% 30.27 in 10.0 mi SSW 5.8 mph - N/A   Clear